TimeEST,TemperatureF,Dew PointF,Humidity,Sea Level PressureIn,VisibilityMPH,Wind Direction,Wind SpeedMPH,Gust SpeedMPH,PrecipitationIn,Events,Conditions,WindDirDegrees,DateUTC
12:51 AM,51.8,42.8,71,30.30,10.0,SW,15.0,24.2,N/A,,Scattered Clouds,220,2012-03-08 05:51:00
1:51 AM,50.0,42.1,74,30.29,10.0,SW,17.3,24.2,N/A,,Clear,220,2012-03-08 06:51:00
2:51 AM,51.8,42.8,71,30.27,10.0,SW,15.0,26.5,N/A,,Clear,220,2012-03-08 07:51:00
3:51 AM,51.1,43.0,74,30.27,10.0,SW,16.1,23.0,N/A,,Clear,220,2012-03-08 08:51:00
4:51 AM,51.1,43.0,74,30.26,10.0,SW,15.0,25.3,N/A,,Clear,220,2012-03-08 09:51:00
5:51 AM,51.1,43.0,74,30.26,10.0,SW,12.7,21.9,N/A,,Scattered Clouds,230,2012-03-08 10:51:00
6:51 AM,51.1,44.1,77,30.25,10.0,SW,12.7,24.2,N/A,,Mostly Cloudy,220,2012-03-08 11:51:00
7:51 AM,54.0,44.1,69,30.22,10.0,SW,11.5,28.8,N/A,,Mostly Cloudy,220,2012-03-08 12:51:00
8:51 AM,57.0,45.0,64,30.20,10.0,SW,17.3,28.8,N/A,,Mostly Cloudy,230,2012-03-08 13:51:00
9:51 AM,60.1,45.0,57,30.19,10.0,SW,19.6,31.1,N/A,,Mostly Cloudy,230,2012-03-08 14:51:00
10:51 AM,62.1,45.0,53,30.16,10.0,SW,16.1,34.5,N/A,,Scattered Clouds,220,2012-03-08 15:51:00
11:51 AM,62.1,45.0,53,30.13,10.0,SW,17.3,34.5,N/A,,Mostly Cloudy,220,2012-03-08 16:51:00
12:51 PM,63.0,45.0,52,30.08,10.0,SW,24.2,35.7,N/A,,Mostly Cloudy,230,2012-03-08 17:51:00
1:51 PM,63.0,46.0,54,30.05,10.0,SW,28.8,46.0,N/A,,Scattered Clouds,230,2012-03-08 18:51:00
2:51 PM,63.0,46.0,54,30.03,10.0,SSW,24.2,41.4,N/A,,Mostly Cloudy,210,2012-03-08 19:51:00
3:51 PM,62.1,46.9,58,30.02,10.0,SSW,21.9,34.5,N/A,,Mostly Cloudy,210,2012-03-08 20:51:00
4:51 PM,59.0,46.0,62,30.02,10.0,SW,16.1,39.1,N/A,,Mostly Cloudy,220,2012-03-08 21:51:00
5:51 PM,57.0,46.0,67,30.01,10.0,SSW,19.6,28.8,N/A,,Mostly Cloudy,210,2012-03-08 22:51:00
6:51 PM,55.0,46.0,72,29.96,10.0,SSW,23.0,32.2,N/A,,Scattered Clouds,200,2012-03-08 23:51:00
7:51 PM,55.9,48.0,75,29.94,10.0,SSW,21.9,31.1,N/A,,Mostly Cloudy,210,2012-03-09 00:51:00
8:51 PM,55.9,48.0,75,29.92,10.0,SSW,20.7,29.9,N/A,,Mostly Cloudy,210,2012-03-09 01:51:00
9:51 PM,57.0,48.0,72,29.89,10.0,SSW,21.9,38.0,N/A,,Overcast,210,2012-03-09 02:51:00
10:51 PM,57.0,46.9,69,29.85,10.0,SW,24.2,39.1,N/A,,Overcast,220,2012-03-09 03:51:00
11:51 PM,57.0,46.9,69,29.82,10.0,SW,31.1,43.7,N/A,,Overcast,220,2012-03-09 04:51:00